Volver al catálogo

QIANFAN-160

ActivoComunicacionesPO
NORAD 69119·PAYLOAD·🇨🇳 China

Lanzado May 17, 2026 desde Wenchang Space Launch Site

Loading…

Próximos Pases (próximas 24 horas)

TLE

ActualizadoSource: Space-Track

Época: Sep 14, 2026, 21:17 UTC

1 69119U 26108R   26257.88735968  .00000099  00000-0  13504-3 0  9993
2 69119  89.0194  13.0742 0002362 107.5695 252.5714 13.51022903 16562

Sigue QIANFAN-160 en tiempo real con AllMySat

Download on the App Store